Location: Asheville, NC
(35.6000°N, 82.5500°W)
Time: 07:12:45
(UTC-04:00)

Envisat - Pass Details

Date: 15 February 2018
Orbit: 764 x 766 km, 98.2° (Epoch: 20 May)

Event Time Altitude Azimuth Distance (km) Brightness Sun altitude
Exits shadow 20:56:05 13° 210° (SSW) 2,088 5.4 -33.8°
Maximum altitude 20:59:44 28° 264° (W) 1,411 4.8 -34.6°
Drops below altitude 10° 21:04:03 10° 322° (NW) 2,302 5.9 -35.4°
Sets 21:06:41 0° 335° (NNW) 3,233 6.7 -36.0°
